Location: Coffee Creek Observatory
(38.8077°N, 94.7179°W)
Time: 04:47:09
(UTC-06:00)

Amateur Radio Satellites - All Passes

Search period start: 16 January 2017 04:17
Search period end: 17 January 2017 04:17
Location: Coffee Creek Observatory, 38.8077°N, 94.7179°W

Satellite Date Start Highest point End Downlink Frequencies (MHz)
Time Altitude Azimuth
MOZHAYETS 4 16 Jan 04:17:14 04:20:17 18° 267° (W) 04:23:21
YUBILEINY 16 Jan 04:28:58 04:32:48 14° 285° (WNW) 04:36:38 435.215
RS-15 16 Jan 04:30:04 04:38:41 21° 346° (NNW) 04:47:24 29.354- 29.394
ITAMSAT 1 16 Jan 04:43:26 04:47:31 24° 294° (WNW) 04:51:35 435.822/435.867
CUBESAT XI-V 16 Jan 04:47:26 04:52:01 56° 260° (W) 04:56:41 437.345
HORYU 2 16 Jan 04:58:29 05:01:43 19° 94° (E) 05:04:56 437.375
PHONESAT 2.4 16 Jan 05:02:29 05:04:48 88° 160° (SSE) 05:07:08 2401.200-2431.200
STARS 16 Jan 05:03:06 05:07:04 33° 262° (W) 05:11:03 437.465
Cosmos 2504 16 Jan 05:03:28 05:05:29 11° 284° (WNW) 05:07:28 435.465 / 435.565
AO-7 16 Jan 05:07:01 05:14:54 48° 296° (WNW) 05:22:44 29.400- 29.500
Cosmos 2491 16 Jan 05:16:14 05:20:23 14° 300° (WNW) 05:24:34 435.465 / 435.565
CUTE-I 16 Jan 05:19:08 05:21:10 12° 90° (E) 05:23:12 437.470
AIST 2 16 Jan 05:22:03 05:25:58 35° 53° (NE) 05:29:52 435.215
DOVE 4 16 Jan 05:28:00 05:29:08 11° 90° (E) 05:30:16 437.250
BRITE-PL 16 Jan 05:28:59 05:34:05 84° 282° (WNW) 05:38:43 437.365/2234.400
DANDE 16 Jan 05:35:01 05:38:07 35° 288° (WNW) 05:42:05 436.750
CUSAT 1 16 Jan 05:35:48 05:38:30 14° 300° (WNW) 05:41:33 437.405
Cosmos 2499 16 Jan 05:43:15 05:45:43 12° 61° (ENE) 05:48:08 435.465 / 435.565
ISS 16 Jan 05:53:48 05:56:38 27° 29° (NNE) 05:59:27 145.825
Cubesat XI-IV 16 Jan 05:58:30 06:03:09 30° 96° (E) 06:07:48 437.490
GOMX 1 16 Jan 05:58:39 06:03:14 77° 102° (ESE) 06:07:30 467.674
STRAND 1 16 Jan 06:09:59 06:14:30 33° 69° (ENE) 06:19:02 437.568
NOAA 15 16 Jan 06:25:02 06:30:17 58° 101° (E) 06:35:30 137.62
HORYU 2 16 Jan 06:34:17 06:38:20 35° 289° (WNW) 06:42:23 437.375
PHONESAT 2.4 16 Jan 06:36:50 06:39:07 51° 1° (N) 06:41:26 2401.200-2431.200
LilacSat-2 16 Jan 06:43:48 06:47:38 66° 284° (WNW) 06:51:27 437.200
RS-15 16 Jan 06:48:10 06:57:36 24° 22° (NNE) 07:06:53 29.354- 29.394
CUTE-I 16 Jan 06:56:25 07:01:44 76° 286° (WNW) 07:07:04 437.470
AIST 2 16 Jan 07:01:01 07:04:13 21° 249° (WSW) 07:07:23 435.215
NOAA 18 16 Jan 07:02:14 07:07:40 65° 102° (ESE) 07:13:04 137.9125
CUTE 1.7 + AOD 2 16 Jan 07:02:49 07:05:38 17° 93° (E) 07:08:27 437.475
DOVE 4 16 Jan 07:03:05 07:07:14 52° 286° (WNW) 07:11:14 437.250
O/OREOS (USA 219) 16 Jan 07:06:45 07:11:05 52° 107° (ESE) 07:15:27 437.305
GONETS M04 16 Jan 07:14:47 07:23:23 53° 77° (ENE) 07:31:57
CUBEBUG 2 16 Jan 07:23:23 07:24:46 11° 91° (E) 07:26:10 437.445
CANX-2 16 Jan 07:29:58 07:34:03 41° 98° (E) 07:38:06 2200.000
CINEMA 3 16 Jan 07:30:03 07:34:11 63° 101° (E) 07:38:23 145.822/145.860
ISS 16 Jan 07:30:10 07:33:08 33° 225° (SW) 07:36:05 145.825
Cosmos 2499 16 Jan 07:32:55 07:40:10 80° 83° (E) 07:47:12 435.465 / 435.565
Cubesat XI-IV 16 Jan 07:38:29 07:43:10 32° 292° (WNW) 07:47:51 437.490
SO-50 16 Jan 07:46:53 07:48:37 12° 107° (ESE) 07:50:21 436.795
STRAND 1 16 Jan 07:49:24 07:53:39 27° 264° (W) 07:57:57 437.568
SEEDS 16 Jan 07:51:28 07:55:30 40° 98° (E) 07:59:29 437.485
HO-68 16 Jan 07:58:41 08:05:52 68° 103° (ESE) 08:12:58 435.675
UWE-3 16 Jan 08:00:38 08:03:49 20° 94° (E) 08:07:02 435.000/436.395/437.385
NOAA 15 16 Jan 08:06:04 08:09:34 18° 297° (WNW) 08:13:02 137.62
COMPASS 1 16 Jan 08:06:22 08:10:19 38° 98° (E) 08:14:14 437.405
PHONESAT 2.4 16 Jan 08:11:05 08:13:24 59° 199° (SSW) 08:15:43 2401.200-2431.200
FUNcube-1 16 Jan 08:11:06 08:13:21 14° 92° (E) 08:15:38 145.935
AAUSAT CUBESAT 2 16 Jan 08:22:39 08:26:41 45° 99° (E) 08:30:41 437.432
ANTELSAT 16 Jan 08:26:54 08:28:28 12° 64° (ENE) 08:30:01 437.575/2403.000
ZACube-1 16 Jan 08:30:10 08:33:46 25° 96° (E) 08:37:25 437.345
CUTE 1.7 + AOD 2 16 Jan 08:37:37 08:41:35 38° 288° (WNW) 08:45:33 437.475
NOAA 18 16 Jan 08:44:23 08:47:45 17° 299° (WNW) 08:51:06 137.9125
O/OREOS (USA 219) 16 Jan 08:48:10 08:50:49 15° 304° (NW) 08:53:28 437.305
CUBEBUG 2 16 Jan 08:57:29 09:01:40 57° 286° (WNW) 09:05:59 437.445
PRISM 16 Jan 09:00:00 09:04:10 75° 258° (WSW) 09:08:21 437.425
RS-15 16 Jan 09:01:13 09:13:29 61° 52° (NE) 09:25:14 29.354- 29.394
CANX-2 16 Jan 09:06:49 09:09:33 17° 294° (WNW) 09:12:17 2200.000
CINEMA 3 16 Jan 09:10:11 09:10:48 10° 296° (WNW) 09:11:25 145.822/145.860
GONETS M04 16 Jan 09:12:17 09:19:44 32° 276° (W) 09:27:12
Oscar 11 16 Jan 09:15:11 09:19:32 69° 101° (E) 09:23:52 145.826/435.025
SO-50 16 Jan 09:23:46 09:28:30 72° 302° (WNW) 09:33:11 436.795
HUMSAT D 16 Jan 09:24:48 09:27:18 15° 92° (E) 09:29:50 437.325/437.525
SEEDS 16 Jan 09:28:09 09:30:50 17° 293° (WNW) 09:33:31 437.485
Cosmos 2499 16 Jan 09:28:34 09:32:12 15° 281° (W) 09:35:47 435.465 / 435.565
UNISAT 6 16 Jan 09:31:32 09:35:45 65° 75° (ENE) 09:39:59 437.425
UWE-3 16 Jan 09:36:26 09:40:18 33° 289° (WNW) 09:44:16 435.000/436.395/437.385
COMPASS 1 16 Jan 09:42:50 09:45:32 17° 293° (WNW) 09:48:14 437.405
JAS-2 16 Jan 09:44:41 09:49:07 28° 65° (ENE) 09:53:49 435.910
FUNcube-1 16 Jan 09:45:37 09:49:48 48° 286° (WNW) 09:54:03 145.935
TIGRISAT 16 Jan 09:46:22 09:50:38 89° 93° (E) 09:54:55 435.000
HO-68 16 Jan 09:47:33 09:52:56 23° 301° (WNW) 09:58:17 435.675
AAUSAT CUBESAT 2 16 Jan 09:59:27 10:01:44 14° 294° (WNW) 10:04:01 437.432
ANTELSAT 16 Jan 10:00:26 10:04:40 58° 260° (W) 10:08:52 437.575/2403.000
ZACube-1 16 Jan 10:06:19 10:09:58 27° 290° (WNW) 10:13:40 437.345
BY70-1 16 Jan 10:15:03 10:15:41 10° 91° (E) 10:16:19 436.1900
DELFI C3 16 Jan 10:22:02 10:25:59 56° 285° (WNW) 10:29:52 145.870
QB50P1 16 Jan 10:23:03 10:26:17 22° 68° (ENE) 10:29:31 145.935-145.965
POLYITAN 1 16 Jan 10:25:32 10:28:52 23° 69° (ENE) 10:32:12 437.675
QB50P2 16 Jan 10:26:25 10:29:54 26° 69° (ENE) 10:33:23 145.880/145.840
PCSat 16 Jan 10:27:40 10:32:39 36° 54° (NE) 10:37:37 145.827
ESTCUBE 1 16 Jan 10:36:14 10:38:02 12° 91° (E) 10:39:50 437.505/2401.250
POPSAT HIP 1 16 Jan 10:48:38 10:52:35 41° 72° (ENE) 10:56:32 437.405
Oscar 11 16 Jan 10:54:02 10:55:04 11° 297° (WNW) 10:56:05 145.826/435.025
HUMSAT D 16 Jan 10:59:03 11:03:05 42° 287° (WNW) 11:07:07 437.325/437.525
DUCHIFAT 1 16 Jan 11:05:19 11:09:24 56° 74° (ENE) 11:13:30 145.980
NANOSAT C BR1 16 Jan 11:08:15 11:12:24 68° 75° (ENE) 11:16:34 145.865
SO-50 16 Jan 11:08:21 11:09:46 11° 321° (NW) 11:11:11 436.795
RS-15 16 Jan 11:14:28 11:25:25 41° 254° (WSW) 11:35:59 29.354- 29.394
JAS-2 16 Jan 11:29:29 11:34:07 32° 265° (W) 11:39:02 435.910
BY70-1 16 Jan 11:43:06 11:46:18 37° 287° (WNW) 11:49:23 436.1900
Gurwin Techsat 1B 16 Jan 11:50:14 11:50:24 10° 58° (ENE) 11:50:34 435.225
DX 1 16 Jan 11:55:19 11:57:44 15° 93° (E) 12:00:09 434.975-435.025
QB50P1 16 Jan 11:58:14 12:01:52 28° 263° (W) 12:05:32 145.935-145.965
BUGSAT 1 16 Jan 11:59:10 12:03:16 84° 75° (ENE) 12:07:20 437.445
POLYITAN 1 16 Jan 12:00:59 12:04:31 26° 264° (W) 12:08:04 437.675
QB50P2 16 Jan 12:02:12 12:05:37 24° 264° (W) 12:09:03 145.880/145.840
UKube-1 16 Jan 12:04:12 12:06:12 13° 92° (E) 12:08:12 .
CUBEBUG 1 16 Jan 12:04:38 12:08:59 70° 102° (ESE) 12:13:16 437.445
AISAT 16 Jan 12:08:38 12:12:54 48° 100° (E) 12:17:07 437.250
Oscar 19 16 Jan 12:08:47 12:13:13 29° 68° (ENE) 12:17:41 437.125/150
SPROUT 16 Jan 12:10:12 12:14:05 34° 98° (E) 12:17:57 437.525
ESTCUBE 1 16 Jan 12:10:43 12:15:11 58° 286° (WNW) 12:19:37 437.505/2401.250
PCSat 16 Jan 12:11:13 12:15:56 31° 251° (WSW) 12:20:36 145.827
POPSAT HIP 1 16 Jan 12:26:09 12:28:32 15° 267° (W) 12:30:55 437.405
50 SAT 16 Jan 12:32:18 12:35:52 71° 101° (ESE) 12:39:23 437.505
VELOX 1 16 Jan 12:42:15 12:46:39 74° 285° (WNW) 12:51:01 145.980
DUCHIFAT 1 16 Jan 12:44:24 12:45:24 11° 269° (W) 12:46:23 145.980
Gurwin Techsat 1B 16 Jan 13:24:09 13:29:27 80° 75° (ENE) 13:34:47 435.225
Cosmos 2491 16 Jan 13:25:15 13:33:46 52° 77° (ENE) 13:42:16 435.465 / 435.565
DX 1 16 Jan 13:29:59 13:34:08 45° 288° (WNW) 13:38:14 434.975-435.025
YUBILEINY 16 Jan 13:33:33 13:40:12 25° 81° (E) 13:46:52 435.215
UKube-1 16 Jan 13:38:19 13:42:30 50° 287° (WNW) 13:46:39 .
CUBEBUG 1 16 Jan 13:43:51 13:44:38 10° 298° (WNW) 13:45:25 437.445
AISAT 16 Jan 13:46:26 13:48:57 15° 295° (WNW) 13:51:26 437.250
SPROUT 16 Jan 13:46:45 13:49:45 19° 293° (WNW) 13:52:45 437.525
Oscar 19 16 Jan 13:47:49 13:52:25 32° 263° (W) 13:57:04 437.125/150
Cosmos 2504 16 Jan 13:52:26 13:57:13 16° 79° (ENE) 14:01:53 435.465 / 435.565
TISAT 1 16 Jan 13:54:21 13:58:32 74° 102° (ESE) 14:02:41 437.305
BEESAT 16 Jan 14:00:00 14:02:51 16° 92° (E) 14:05:42 436.000
SWISSCUBE 16 Jan 14:00:47 14:04:05 18° 94° (E) 14:07:20 437.505
AO-7 16 Jan 14:11:49 14:19:39 47° 64° (ENE) 14:27:32 29.400- 29.500
AIST 1 16 Jan 14:15:15 14:19:25 44° 93° (E) 14:23:35
ITAMSAT 1 16 Jan 14:20:02 14:25:03 55° 72° (ENE) 14:30:06 435.822/435.867
CUSAT 1 16 Jan 14:24:06 14:31:51 53° 76° (ENE) 14:39:17 437.405
DANDE 16 Jan 14:28:48 14:34:32 23° 69° (ENE) 14:40:45 436.750
MOZHAYETS 4 16 Jan 14:37:36 14:38:32 11° 90° (E) 14:39:30
ITUPSAT 1 16 Jan 14:58:23 15:03:10 64° 101° (ESE) 15:07:56 437.325
BRITE-PL 16 Jan 15:02:06 15:04:46 14° 61° (ENE) 15:07:26 437.365/2234.400
AO-85 16 Jan 15:06:53 15:11:42 88° 113° (ESE) 15:16:10 145.980
Gurwin Techsat 1B 16 Jan 15:08:24 15:09:58 11° 271° (W) 15:11:32 435.225
Cosmos 2491 16 Jan 15:22:43 15:30:10 33° 276° (W) 15:37:40 435.465 / 435.565
YUBILEINY 16 Jan 15:27:26 15:36:11 67° 280° (W) 15:45:00 435.215
BEESAT 16 Jan 15:36:16 15:40:54 51° 288° (WNW) 15:45:30 436.000
SWISSCUBE 16 Jan 15:37:29 15:42:02 44° 289° (WNW) 15:46:34 437.505
Cosmos 2504 16 Jan 15:40:38 15:49:28 88° 96° (E) 15:57:52 435.465 / 435.565
KKS-1 16 Jan 15:48:13 15:51:24 19° 94° (E) 15:54:34 437.445
AUBIESAT-1 16 Jan 15:49:23 15:51:30 16° 99° (E) 15:53:34 437.475
AIST 1 16 Jan 15:54:47 15:57:13 15° 288° (WNW) 15:59:41
HORYU 2 16 Jan 15:55:53 15:58:37 16° 65° (ENE) 16:01:21 437.375
ITAMSAT 1 16 Jan 16:01:36 16:04:50 17° 268° (W) 16:08:04 435.822/435.867
AO-7 16 Jan 16:04:52 16:12:28 38° 261° (W) 16:20:08 29.400- 29.500
CUSAT 1 16 Jan 16:06:34 16:13:25 33° 273° (W) 16:20:02 437.405
NOAA 15 16 Jan 16:09:33 16:10:06 10° 58° (ENE) 16:10:40 137.62
DANDE 16 Jan 16:10:13 16:17:44 77° 264° (W) 16:26:05 436.750
MOZHAYETS 4 16 Jan 16:11:31 16:16:08 69° 285° (WNW) 16:20:45
SO-50 16 Jan 16:19:10 16:19:35 10° 38° (NE) 16:20:01 436.795
DOVE 4 16 Jan 16:31:20 16:33:54 14° 65° (ENE) 16:36:24 437.250
BRITE-PL 16 Jan 16:36:45 16:42:24 88° 260° (W) 16:48:08 437.365/2234.400
ITUPSAT 1 16 Jan 16:38:01 16:40:26 14° 298° (WNW) 16:42:51 437.325
CUTE-I 16 Jan 16:39:01 16:42:42 19° 64° (ENE) 16:46:23 437.470
M-CUBED/EXP-1 PRIME 16 Jan 16:42:07 16:45:31 67° 290° (WNW) 16:48:46 437.505
CUBESAT XI-V 16 Jan 16:45:17 16:49:42 39° 98° (E) 16:54:03 437.345
NOAA 18 16 Jan 16:49:55 16:52:49 15° 60° (ENE) 16:55:42 137.9125
AO-85 16 Jan 16:50:41 16:52:38 12° 317° (NW) 16:54:31 145.980
STARS 16 Jan 16:53:10 16:57:21 45° 100° (E) 17:01:32 437.465
GOMX 1 16 Jan 17:03:54 17:09:22 73° 76° (ENE) 17:14:40 467.674
O/OREOS (USA 219) 16 Jan 17:17:47 17:22:18 81° 69° (ENE) 17:26:49 437.305
Cubesat XI-IV 16 Jan 17:19:06 17:24:07 44° 70° (ENE) 17:29:09 437.490
AUBIESAT-1 16 Jan 17:23:10 17:25:58 24° 295° (WNW) 17:28:41 437.475
BEESAT 3 16 Jan 17:23:46 17:27:37 69° 118° (ESE) 17:31:31 437.485
KKS-1 16 Jan 17:24:01 17:28:03 35° 289° (WNW) 17:32:03 437.445
LilacSat-2 16 Jan 17:24:14 17:27:49 45° 74° (ENE) 17:31:27 437.200
JUGNU 16 Jan 17:29:40 17:31:35 12° 179° (S) 17:33:32 437.505
HORYU 2 16 Jan 17:30:34 17:34:47 44° 261° (W) 17:39:01 437.375
YUBILEINY 16 Jan 17:31:50 17:34:51 12° 302° (WNW) 17:37:54 435.215
Cosmos 2504 16 Jan 17:38:07 17:43:47 19° 294° (WNW) 17:49:20 435.465 / 435.565
NOAA 15 16 Jan 17:43:42 17:48:59 81° 75° (ENE) 17:54:18 137.62
DANDE 16 Jan 17:55:48 17:59:32 14° 278° (W) 18:03:27 436.750
CUTE 1.7 + AOD 2 16 Jan 17:56:08 17:57:12 11° 63° (ENE) 17:58:15 437.475
SO-50 16 Jan 17:56:25 18:00:55 69° 57° (ENE) 18:05:21 436.795
BEESAT 2 16 Jan 17:58:47 18:02:41 71° 119° (ESE) 18:06:39 435.950
DOVE 4 16 Jan 18:05:57 18:11:05 67° 259° (WSW) 18:15:58 437.250
CUTE-I 16 Jan 18:17:09 18:22:19 52° 260° (W) 18:27:30 437.470
BRITE-PL 16 Jan 18:20:10 18:21:31 11° 273° (W) 18:22:54 437.365/2234.400
Cosmos 2499 16 Jan 18:20:57 18:23:00 11° 77° (ENE) 18:25:02 435.465 / 435.565
CANX-2 16 Jan 18:21:43 18:25:10 25° 69° (ENE) 18:28:38 2200.000
CUBESAT XI-V 16 Jan 18:23:21 18:26:46 20° 294° (WNW) 18:30:11 437.345
STRAND 1 16 Jan 18:23:34 18:25:31 12° 90° (E) 18:27:28 437.568
HO-68 16 Jan 18:25:45 18:32:27 44° 66° (ENE) 18:39:10 435.675
NOAA 18 16 Jan 18:27:16 18:32:47 77° 257° (WSW) 18:38:19 137.9125
CINEMA 3 16 Jan 18:30:05 18:34:28 49° 74° (ENE) 18:38:41 145.822/145.860
STARS 16 Jan 18:30:42 18:33:19 16° 295° (WNW) 18:35:56 437.465
SEEDS 16 Jan 18:42:09 18:45:30 24° 69° (ENE) 18:48:54 437.485
GOMX 1 16 Jan 18:45:13 18:47:50 13° 270° (W) 18:50:25 467.674
SRMSAT 16 Jan 18:52:04 18:52:43 10° 172° (S) 18:53:23 437.500
COMPASS 1 16 Jan 18:56:06 18:59:21 22° 69° (ENE) 19:02:38 437.405
UWE-3 16 Jan 18:57:46 18:59:47 13° 65° (ENE) 19:01:46 435.000/436.395/437.385
Cubesat XI-IV 16 Jan 19:00:20 19:04:21 22° 266° (W) 19:08:24 437.490
LilacSat-2 16 Jan 19:01:36 19:02:21 10° 269° (W) 19:03:05 437.200
BEESAT 3 16 Jan 19:04:00 19:05:40 12° 317° (NW) 19:07:21 437.485
AAUSAT CUBESAT 2 16 Jan 19:11:41 19:15:08 25° 70° (ENE) 19:18:34 437.432
ZACube-1 16 Jan 19:25:45 19:28:19 16° 67° (ENE) 19:30:55 437.345
NOAA 15 16 Jan 19:27:52 19:29:20 11° 270° (W) 19:30:48 137.62
CUTE 1.7 + AOD 2 16 Jan 19:28:15 19:32:26 65° 259° (W) 19:36:41 437.475
BEESAT 2 16 Jan 19:39:14 19:40:56 12° 317° (NW) 19:42:39 435.950
SO-50 16 Jan 19:39:25 19:40:44 11° 253° (WSW) 19:42:03 436.795
CUBEBUG 2 16 Jan 19:54:03 19:58:17 83° 259° (WSW) 20:02:27 437.445
CANX-2 16 Jan 19:57:23 20:00:54 25° 265° (W) 20:04:28 2200.000
STRAND 1 16 Jan 20:00:03 20:05:11 73° 286° (WNW) 20:10:17 437.568
Cosmos 2499 16 Jan 20:06:13 20:14:46 71° 93° (E) 20:22:46 435.465 / 435.565
Oscar 11 16 Jan 20:08:28 20:12:32 43° 73° (ENE) 20:16:38 145.826/435.025
CINEMA 3 16 Jan 20:09:30 20:11:49 14° 268° (W) 20:14:04 145.822/145.860
HO-68 16 Jan 20:13:50 20:20:13 34° 263° (W) 20:26:40 435.675
GONETS M04 16 Jan 20:13:50 20:22:21 63° 92° (E) 20:30:56
SEEDS 16 Jan 20:17:32 20:21:04 26° 264° (W) 20:24:39 437.485
COMPASS 1 16 Jan 20:31:10 20:34:44 28° 264° (W) 20:38:21 437.405
UWE-3 16 Jan 20:31:48 20:35:49 47° 261° (W) 20:39:50 435.000/436.395/437.385
SRMSAT 16 Jan 20:39:05 20:40:58 11° 183° (S) 20:42:51 437.500
FUNcube-1 16 Jan 20:39:31 20:43:39 75° 259° (W) 20:47:47 145.935
PRISM 16 Jan 20:43:54 20:46:26 16° 93° (E) 20:48:56 437.425
AAUSAT CUBESAT 2 16 Jan 20:47:07 20:50:30 24° 265° (W) 20:53:55 437.432
AIST 2 16 Jan 20:55:57 21:00:03 74° 302° (WNW) 21:04:13 435.215
ZACube-1 16 Jan 21:00:27 21:04:18 37° 262° (W) 21:08:10 437.345
DELFI C3 16 Jan 21:05:45 21:09:42 64° 76° (ENE) 21:13:42 145.870
UNISAT 6 16 Jan 21:25:27 21:27:59 15° 93° (E) 21:30:32 437.425
ESTCUBE 1 16 Jan 21:35:55 21:36:49 11° 62° (ENE) 21:37:42 437.505/2401.250
TIGRISAT 16 Jan 21:39:32 21:42:48 20° 95° (E) 21:46:04 435.000
Oscar 11 16 Jan 21:46:23 21:48:52 15° 268° (W) 21:51:21 145.826/435.025
HUMSAT D 16 Jan 21:48:24 21:52:28 74° 258° (WSW) 21:56:36 437.325/437.525
ANTELSAT 16 Jan 21:53:10 21:57:03 30° 97° (E) 22:01:00 437.575/2403.000
BY70-1 16 Jan 21:57:16 21:59:39 24° 70° (ENE) 22:02:14 436.1900
Cosmos 2499 16 Jan 22:02:04 22:08:28 23° 291° (WNW) 22:14:37 435.465 / 435.565
GONETS M04 16 Jan 22:12:43 22:19:45 27° 291° (WNW) 22:26:52
PRISM 16 Jan 22:18:02 22:21:51 37° 289° (WNW) 22:25:37 437.425
ISS 16 Jan 22:34:08 22:35:51 14° 129° (SE) 22:37:36 145.825
JAS-2 16 Jan 22:37:18 22:43:48 37° 97° (E) 22:50:46 435.910
DX 1 16 Jan 22:50:41 22:52:20 12° 63° (ENE) 22:53:59 434.975-435.025
NANOSAT C BR1 16 Jan 22:55:56 22:57:24 12° 91° (E) 22:58:51 145.865
CUBEBUG 1 16 Jan 22:58:56 23:03:11 48° 73° (ENE) 23:07:26 437.445
UKube-1 16 Jan 22:59:12 22:59:52 10° 62° (ENE) 23:00:31 .
UNISAT 6 16 Jan 23:00:41 23:04:53 46° 287° (WNW) 23:09:11 437.425
SPROUT 16 Jan 23:02:41 23:06:01 23° 69° (ENE) 23:09:22 437.525
AISAT 16 Jan 23:04:30 23:08:35 36° 71° (ENE) 23:12:40 437.250
50 SAT 16 Jan 23:06:07 23:08:57 22° 70° (ENE) 23:11:47 437.505
ESTCUBE 1 16 Jan 23:08:26 23:12:57 77° 259° (W) 23:17:30 437.505/2401.250
TIGRISAT 16 Jan 23:15:33 23:19:31 34° 289° (WNW) 23:23:34 435.000
RS-15 16 Jan 23:22:46 23:33:26 42° 107° (ESE) 23:44:30 29.354- 29.394
BY70-1 16 Jan 23:29:21 23:30:11 11° 269° (W) 23:31:03 436.1900
ANTELSAT 16 Jan 23:30:07 23:33:36 23° 291° (WNW) 23:37:08 437.575/2403.000
VELOX 1 16 Jan 23:37:42 23:42:09 82° 78° (ENE) 23:46:38 145.980
AO-85 16 Jan 23:39:48 23:43:35 45° 55° (NE) 23:47:20 145.980
QB50P1 16 Jan 23:43:24 23:47:29 46° 99° (E) 23:51:32 145.935-145.965
BUGSAT 1 16 Jan 23:43:54 23:45:38 12° 92° (E) 23:47:22 437.445
POLYITAN 1 16 Jan 23:46:11 23:50:18 51° 100° (E) 23:54:24 437.675
QB50P2 16 Jan 23:47:14 23:51:24 56° 100° (E) 23:55:33 145.880/145.840
ISS 17 Jan 00:08:48 00:12:00 55° 324° (NW) 00:15:12 145.825
POPSAT HIP 1 17 Jan 00:09:48 00:14:02 86° 281° (W) 00:18:15 437.405
JAS-2 17 Jan 00:22:14 00:28:45 44° 291° (WNW) 00:35:52 435.910
DX 1 17 Jan 00:23:38 00:27:57 63° 258° (WSW) 00:32:19 434.975-435.025
Oscar 19 17 Jan 00:24:25 00:25:12 10° 89° (E) 00:25:59 437.125/150
DUCHIFAT 1 17 Jan 00:25:55 00:30:04 64° 285° (WNW) 00:34:12 145.980
NANOSAT C BR1 17 Jan 00:29:19 00:33:24 53° 286° (WNW) 00:37:29 145.865
UKube-1 17 Jan 00:30:57 00:35:15 72° 257° (WSW) 00:39:37 .
CUBEBUG 1 17 Jan 00:37:20 00:39:42 14° 268° (W) 00:42:03 437.445
SPROUT 17 Jan 00:38:07 00:41:47 28° 264° (W) 00:45:29 437.525
50 SAT 17 Jan 00:39:27 00:42:05 19° 265° (W) 00:44:45 437.505
AISAT 17 Jan 00:41:58 00:45:07 19° 266° (W) 00:48:18 437.250
TISAT 1 17 Jan 00:44:25 00:48:24 44° 73° (ENE) 00:52:23 437.305
BEESAT 17 Jan 01:05:27 01:08:25 17° 64° (ENE) 01:11:24 436.000
SWISSCUBE 17 Jan 01:06:15 01:09:33 19° 65° (ENE) 01:12:53 437.505
PCSat 17 Jan 01:07:54 01:12:56 41° 111° (ESE) 01:17:59 145.827
BUGSAT 1 17 Jan 01:17:23 01:21:13 45° 287° (WNW) 01:25:04 437.445
QB50P1 17 Jan 01:20:35 01:22:50 14° 295° (WNW) 01:25:05 145.935-145.965
AO-85 17 Jan 01:21:47 01:23:32 13° 251° (WSW) 01:25:17 145.980
POLYITAN 1 17 Jan 01:23:37 01:25:38 13° 295° (WNW) 01:27:40 437.675
QB50P2 17 Jan 01:25:02 01:26:41 12° 296° (WNW) 01:28:21 145.880/145.840
RS-15 17 Jan 01:33:47 01:45:28 59° 309° (NW) 01:57:40 29.354- 29.394
Cosmos 2504 17 Jan 01:36:27 01:42:34 27° 70° (ENE) 01:48:27 435.465 / 435.565
YUBILEINY 17 Jan 01:39:16 01:47:59 59° 79° (ENE) 01:56:35 435.215
Gurwin Techsat 1B 17 Jan 01:41:57 01:46:48 35° 97° (E) 01:51:37 435.225
BEESAT 3 17 Jan 01:42:03 01:45:30 27° 51° (NE) 01:48:55 437.485
ISS 17 Jan 01:47:26 01:49:03 13° 343° (NNW) 01:50:41 145.825
M-CUBED/EXP-1 PRIME 17 Jan 01:54:46 01:56:14 12° 60° (ENE) 01:57:41 437.505
Oscar 19 17 Jan 01:59:55 02:05:07 82° 285° (WNW) 02:10:15 437.125/150
AIST 1 17 Jan 02:00:46 02:05:00 64° 265° (W) 02:09:12
ITUPSAT 1 17 Jan 02:03:40 02:08:21 64° 74° (ENE) 02:13:05 437.325
AO-7 17 Jan 02:17:29 02:21:21 14° 89° (E) 02:25:11 29.400- 29.500
BEESAT 2 17 Jan 02:17:56 02:21:28 28° 52° (NE) 02:24:58 435.950
TISAT 1 17 Jan 02:22:06 02:24:15 14° 268° (W) 02:26:23 437.305
Cosmos 2491 17 Jan 02:24:26 02:32:57 62° 91° (E) 02:41:30 435.465 / 435.565
AUBIESAT-1 17 Jan 02:32:46 02:36:12 23° 65° (ENE) 02:39:29 437.475
ITAMSAT 1 17 Jan 02:34:52 02:38:47 21° 94° (E) 02:42:41 435.822/435.867
BEESAT 17 Jan 02:41:10 02:45:46 50° 260° (W) 02:50:25 436.000
SWISSCUBE 17 Jan 02:42:29 02:47:00 43° 261° (W) 02:51:33 437.505
KKS-1 17 Jan 02:45:35 02:48:21 16° 65° (ENE) 02:51:07 437.445
PCSat 17 Jan 02:51:49 02:56:26 28° 309° (NW) 03:01:04 145.827
MOZHAYETS 4 17 Jan 03:11:42 03:16:16 86° 260° (W) 03:20:52
BEESAT 3 17 Jan 03:19:43 03:23:01 25° 247° (WSW) 03:26:18 437.485
Gurwin Techsat 1B 17 Jan 03:22:07 03:26:35 28° 293° (WNW) 03:31:02 435.225
CUSAT 1 17 Jan 03:24:38 03:28:54 41° 90° (E) 03:34:26 437.405
PHONESAT 2.4 17 Jan 03:24:48 03:26:48 25° 155° (SSE) 03:28:49 2401.200-2431.200
M-CUBED/EXP-1 PRIME 17 Jan 03:25:41 03:30:12 72° 253° (WSW) 03:34:29 437.505
Cosmos 2504 17 Jan 03:29:09 03:36:17 51° 270° (W) 03:43:08 435.465 / 435.565
YUBILEINY 17 Jan 03:37:03 03:44:08 28° 277° (W) 03:51:10 435.215
ITUPSAT 1 17 Jan 03:44:42 03:46:34 12° 269° (W) 03:48:28 437.325
CUBESAT XI-V 17 Jan 03:47:11 03:51:23 33° 70° (ENE) 03:55:35 437.345
STARS 17 Jan 03:48:27 03:52:24 34° 70° (ENE) 03:56:22 437.465
RS-15 17 Jan 03:52:18 04:01:28 23° 339° (NNW) 04:10:47 29.354- 29.394
BEESAT 2 17 Jan 03:55:50 03:59:08 24° 248° (WSW) 04:02:24 435.950
AUBIESAT-1 17 Jan 04:06:30 04:10:26 31° 257° (WSW) 04:14:10 437.475
